Regional Weather Roundup
Issued by NWS

Home | Current Version | Previous Version | Text Only | Print | Product List | Glossary On
Versions: 1 2 3 4 5 6 7 8 9 10 11 12 13 14 15 16 17 18 19 20 21 22 23 24 25 26 27 28 29 30 31 32 33 34 35 36 37 38 39 40 41 42 43 44 45 46 47 48 49 50
000
ASUS43 KTOP 280159
RWRKS

WEATHER ROUNDUP FOR KANSAS
NATIONAL WEATHER SERVICE GOODLAND KS
900 PM CDT MON MAR 27 2017

NOTE:  "FAIR" INDICATES FEW OR NO CLOUDS BELOW 12,000 FEET WITH NO
SIGNIFICANT WEATHER AND/OR OBSTRUCTIONS TO VISIBILITY.

KSZ001>006-013>018-027>032-041>047-280300-
NORTHWEST KANSAS

CITY           SKY/WX    TMP DP  RH WIND       PRES   REMARKS
GOODLAND       CLEAR     52  41  66 SE10      29.86R
HAYS             N/A     52  42  69 E12       29.93R
HILL CITY      PTCLDY    53  42  66 E12       29.92R
RUSSELL        MOCLDY    48  42  80 E9        29.93R
$$

KSZ061>065-074>080-084>089-280300-
SOUTHWEST KANSAS

CITY           SKY/WX    TMP DP  RH WIND       PRES   REMARKS
DODGE CITY     CLEAR     50  41  71 E8        29.91R
ELKHART          N/A     53  33  46 E12         N/A
GARDEN CITY    CLEAR     54  37  52 SE12      29.89R
GREAT BEND     CLEAR     51  45  79 E12       29.93R
LIBERAL        CLEAR     59  32  36 E12       29.88R
$$

KSZ066>073-081>083-090>101-280300-
SOUTHEAST KANSAS

CITY           SKY/WX    TMP DP  RH WIND       PRES   REMARKS
CHANUTE        CLOUDY    53  47  79 NE5       29.95S
COFFEYVILLE    CLOUDY    55  48  77 CALM      29.96R
HUTCHINSON     CLOUDY    52  46  80 CALM      29.96R
MEDICINE LODGE   N/A     51  44  77 E9        29.94R
NEWTON         CLOUDY    51  47  86 E3        29.97R
PARSONS        CLOUDY    54  48  80 CALM      29.96R
WICHITA INTL   CLOUDY    53  46  77 E6        29.96R
WICHITA JABRA  CLOUDY    52  46  80 E3        29.96R
WINFIELD       CLOUDY    53  46  77 NE6       29.97R
$$

KSZ007>012-019>026-033>040-048>060-102>105-280300-
NORTHEAST KANSAS

CITY           SKY/WX    TMP DP  RH WIND       PRES   REMARKS
CONCORDIA      CLOUDY    49  46  90 E5        29.96R
EMPORIA        CLOUDY    53  47  79 NE3       29.95R
LAWRENCE       CLOUDY    53  48  83 N3        29.97R
MANHATTAN      CLOUDY    53  46  77 E7        29.96R
OLATHE IND     CLOUDY    51  45  79 N9        29.96R
OLATHE EXE     CLOUDY    50  47  89 NE3       29.96R
SALINA         CLOUDY    53  46  77 S3        29.97R
TOPEKA BILLARD CLOUDY    53  47  79 N7        29.97R
TOPEKA FORBES  CLOUDY    54  46  74 N6        29.96R
$$




USA.gov is the U.S. government's official web portal to all federal, state and local government web resources and services.